SKW232 KLAX-KDEN

Flight info

Callsign SKW232
Flight time N/A
Altitude 32000
Route DCT
Aircraft C25A/L-VGD/C

Departure

Time 2026-04-20 04:07
Airport Los Angeles International Airport (KLAX)

Arrival

Time N/A
Airport Denver International Airport (KDEN)
Time Latitude Longitude Altitude Speed Heading
2026-04-20 03:07 33.93392 -118.39571 119 ft 0 kts 225°
2026-04-20 03:41 33.93389 -118.39571 117 ft 1 kts 178°
2026-04-20 03:42 33.93389 -118.39565 119 ft 1 kts 51°
2026-04-20 03:42 33.93392 -118.39565 119 ft 0 kts 359°
2026-04-20 03:44 33.93410 -118.39565 119 ft 5 kts 359°
2026-04-20 03:44 33.93426 -118.39529 119 ft 8 kts 92°
2026-04-20 03:44 33.93431 -118.39455 119 ft 9 kts 88°
2026-04-20 03:45 33.93442 -118.39388 119 ft 6 kts 14°
2026-04-20 03:45 33.93445 -118.39387 118 ft 0 kts
2026-04-20 04:01 33.93478 -118.39386 119 ft 14 kts 12°
2026-04-20 04:01 33.93511 -118.39267 119 ft 19 kts 83°
2026-04-20 04:01 33.93530 -118.39091 119 ft 22 kts 82°
2026-04-20 04:02 33.93548 -118.38909 119 ft 22 kts 82°
2026-04-20 04:02 33.93567 -118.38725 117 ft 22 kts 82°
2026-04-20 04:02 33.93586 -118.38538 119 ft 23 kts 83°
2026-04-20 04:02 33.93605 -118.38350 119 ft 23 kts 83°
2026-04-20 04:03 33.93618 -118.38254 119 ft 1 kts 13°
2026-04-20 04:03 33.93626 -118.38266 116 ft 4 kts 309°
2026-04-20 04:03 33.93642 -118.38275 119 ft 0 kts 351°
2026-04-20 04:05 33.93653 -118.38277 116 ft 10 kts 352°
2026-04-20 04:05 33.93728 -118.38325 119 ft 14 kts 287°
2026-04-20 04:05 33.93729 -118.38364 119 ft 0 kts 263°
2026-04-20 04:06 33.93676 -118.38876 119 ft 121 kts 263°
2026-04-20 04:06 33.93539 -118.40186 352 ft 178 kts 264°
2026-04-20 04:07 33.93437 -118.41754 1032 ft 190 kts 265°
2026-04-20 04:07 33.93385 -118.43306 1518 ft 182 kts 269°
2026-04-20 04:07 33.93358 -118.44867 1716 ft 194 kts 269°
2026-04-20 04:07 33.93370 -118.46506 2126 ft 193 kts 272°
2026-04-20 04:08 33.93465 -118.48160 2247 ft 209 kts 274°
2026-04-20 04:08 33.93533 -118.49950 2416 ft 216 kts 271°
2026-04-20 04:08 33.93492 -118.51755 2837 ft 214 kts 266°
2026-04-20 04:08 33.93407 -118.53566 3601 ft 221 kts 265°
2026-04-20 04:09 33.93262 -118.55558 3663 ft 258 kts 262°
2026-04-20 04:09 33.93031 -118.57813 3730 ft 279 kts 262°
2026-04-20 04:09 33.92786 -118.60124 4142 ft 271 kts 261°
2026-04-20 04:09 33.92566 -118.62293 4146 ft 252 kts 262°
2026-04-20 04:10 33.92360 -118.64335 4147 ft 241 kts 261°
2026-04-20 04:10 33.92170 -118.66285 4394 ft 226 kts 261°
2026-04-20 04:10 33.91993 -118.68158 4862 ft 233 kts 261°
2026-04-20 04:10 33.91807 -118.70195 4896 ft 256 kts 262°
2026-04-20 04:11 33.91630 -118.72384 5025 ft 266 kts 262°
2026-04-20 04:11 33.91452 -118.74598 5346 ft 266 kts 263°
2026-04-20 04:11 33.91281 -118.76815 5658 ft 266 kts 262°
2026-04-20 04:11 33.91402 -118.79038 5890 ft 274 kts 287°
2026-04-20 04:12 33.92578 -118.80826 6157 ft 278 kts 322°
2026-04-20 04:12 33.94221 -118.82052 6420 ft 278 kts 329°
2026-04-20 04:12 33.95923 -118.83186 6680 ft 280 kts 331°
2026-04-20 04:12 33.97644 -118.84292 6950 ft 281 kts 331°
2026-04-20 04:13 33.99379 -118.85392 7212 ft 282 kts 332°
2026-04-20 04:13 34.01095 -118.86484 7467 ft 284 kts 331°
2026-04-20 04:13 34.02848 -118.87587 7721 ft 285 kts 331°
2026-04-20 04:13 34.04598 -118.88692 8022 ft 284 kts 332°
2026-04-20 04:14 34.06364 -118.89799 8232 ft 287 kts 331°
2026-04-20 04:14 34.08136 -118.90913 8478 ft 288 kts 332°
2026-04-20 04:14 34.09920 -118.92026 8703 ft 289 kts 331°
2026-04-20 04:14 34.11706 -118.93141 8917 ft 290 kts 332°
2026-04-20 04:15 34.13497 -118.94259 9085 ft 290 kts 332°
2026-04-20 04:15 34.15297 -118.95378 9193 ft 291 kts 331°
2026-04-20 04:15 34.17101 -118.96498 9347 ft 292 kts 332°
2026-04-20 04:15 34.18909 -118.97621 9522 ft 293 kts 331°
2026-04-20 04:16 34.20721 -118.98739 9730 ft 292 kts 331°
2026-04-20 04:16 34.22534 -118.99861 9859 ft 294 kts 332°
2026-04-20 04:16 34.24334 -119.00973 9971 ft 295 kts 332°
2026-04-20 04:16 34.26162 -119.02097 10090 ft 295 kts 332°
2026-04-20 04:17 34.27993 -119.03227 10197 ft 296 kts 332°
2026-04-20 04:17 34.29831 -119.04354 10371 ft 295 kts 332°
2026-04-20 04:17 34.31669 -119.05485 10396 ft 299 kts 332°
2026-04-20 04:17 34.33533 -119.06628 10400 ft 302 kts 332°
2026-04-20 04:18 34.35409 -119.07779 10483 ft 300 kts 332°
2026-04-20 04:18 34.37196 -119.08875 11227 ft 275 kts 331°
2026-04-20 04:18 34.38860 -119.09881 11869 ft 266 kts 332°
2026-04-20 04:18 34.40626 -119.10577 12135 ft 274 kts 357°
2026-04-20 04:19 34.42430 -119.09945 12502 ft 273 kts 34°
2026-04-20 04:19 34.43757 -119.08333 12877 ft 270 kts 53°
2026-04-20 04:19 34.44894 -119.06556 13229 ft 271 kts 56°
2026-04-20 04:19 34.46023 -119.04711 13564 ft 273 kts 56°
2026-04-20 04:20 34.47152 -119.02850 13828 ft 275 kts 57°
2026-04-20 04:20 34.48288 -119.00978 14066 ft 277 kts 57°
2026-04-20 04:20 34.49427 -118.99099 14414 ft 272 kts 57°
2026-04-20 04:20 34.50526 -118.97284 14923 ft 266 kts 57°
2026-04-20 04:21 34.51625 -118.95463 15208 ft 268 kts 57°
2026-04-20 04:21 34.52731 -118.93636 15528 ft 270 kts 57°
2026-04-20 04:21 34.53861 -118.91757 15624 ft 284 kts 57°
2026-04-20 04:21 34.55018 -118.89822 16536 ft 285 kts 56°
2026-04-20 04:22 34.56209 -118.87820 16983 ft 306 kts 57°
2026-04-20 04:22 34.57501 -118.85625 16987 ft 333 kts 56°
2026-04-20 04:22 34.58866 -118.83296 17058 ft 350 kts 57°
2026-04-20 04:22 34.60286 -118.80867 17326 ft 355 kts 56°
2026-04-20 04:23 34.61724 -118.78390 17436 ft 363 kts 57°
2026-04-20 04:23 34.63197 -118.75858 17477 ft 371 kts 57°
2026-04-20 04:23 34.64694 -118.73277 17482 ft 376 kts 57°
2026-04-20 04:23 34.66211 -118.70670 17483 ft 379 kts 57°
2026-04-20 04:24 34.67736 -118.68044 17481 ft 381 kts 57°
2026-04-20 04:24 34.69271 -118.65412 17483 ft 383 kts 57°
2026-04-20 04:24 34.70788 -118.62801 17485 ft 384 kts 57°
2026-04-20 04:24 34.72332 -118.60154 17488 ft 383 kts 57°
2026-04-20 04:25 34.73874 -118.57511 17494 ft 383 kts 56°
2026-04-20 04:25 34.75417 -118.54867 17495 ft 384 kts 57°
2026-04-20 04:25 34.76964 -118.52223 17499 ft 384 kts 57°
2026-04-20 04:25 34.78508 -118.49578 17504 ft 384 kts 57°
2026-04-20 04:26 34.80056 -118.46936 17506 ft 384 kts 57°
2026-04-20 04:26 34.81509 -118.44222 17479 ft 381 kts 66°
2026-04-20 04:26 34.81762 -118.41343 17261 ft 312 kts 108°
2026-04-20 04:26 34.80617 -118.39335 15344 ft 296 kts 142°
2026-04-20 04:27 34.78959 -118.37958 14247 ft 275 kts 152°
2026-04-20 04:27 34.77333 -118.36968 13208 ft 243 kts 158°
2026-04-20 04:27 34.75802 -118.36143 11364 ft 237 kts 153°
2026-04-20 04:27 34.74401 -118.35185 9571 ft 226 kts 153°
2026-04-20 04:28 34.72988 -118.34273 7168 ft 236 kts 153°
2026-04-20 04:28 34.71544 -118.33367 5069 ft 233 kts 154°
2026-04-20 04:28 34.70159 -118.32510 4359 ft 195 kts 158°
2026-04-20 04:28 34.69017 -118.32077 4038 ft 161 kts 162°
2026-04-20 04:29 34.68032 -118.31599 3479 ft 155 kts 158°
2026-04-20 04:29 34.67108 -118.31054 3704 ft 139 kts 152°
2026-04-20 04:29 34.66254 -118.30460 3919 ft 141 kts 154°
2026-04-20 04:29 34.65412 -118.29878 4275 ft 135 kts 154°
2026-04-20 04:30 34.64547 -118.29329 4758 ft 145 kts 152°
2026-04-20 04:30 34.63866 -118.28359 5096 ft 160 kts 104°
2026-04-20 04:30 34.64162 -118.27211 5098 ft 141 kts 46°
2026-04-20 04:30 34.65062 -118.26698 4837 ft 147 kts 20°
2026-04-20 04:31 34.65995 -118.26214 4725 ft 145 kts 26°
2026-04-20 04:31 34.66895 -118.25687 4653 ft 143 kts 26°
2026-04-20 04:31 34.67795 -118.25185 4586 ft 140 kts 23°
2026-04-20 04:31 34.68723 -118.24828 4458 ft 143 kts
2026-04-20 04:32 34.69697 -118.24641 4322 ft 146 kts
2026-04-20 04:32 34.70710 -118.24562 4130 ft 143 kts 359°
2026-04-20 04:32 34.71700 -118.24576 3798 ft 138 kts 357°
2026-04-20 04:32 34.72607 -118.24488 3476 ft 127 kts 12°
2026-04-20 04:33 34.73380 -118.23982 2973 ft 128 kts 46°
2026-04-20 04:33 34.73787 -118.23036 2458 ft 123 kts 68°
2026-04-20 04:33 34.74026 -118.22163 2345 ft 93 kts 69°
2026-04-20 04:33 34.74166 -118.21640 2346 ft 31 kts 72°
2026-04-20 04:34 34.74177 -118.21599 2345 ft 0 kts 72°